Litchfield, MN

10:43 PM CST on February 12, 2016 (GMT -0600)
Litchfield Municipal

Weather History for KLJF - March, 2013

Change the Weather History Date:

Saturday, March 16, 2013

  Actual Average Record
Temperature  
Mean Temperature 15 °F -  
Max Temperature 24 °F 39 °F 77 °F (2012)
Min Temperature 6 °F 18 °F -5 °F (1951)
Degree Days  
Heating Degree Days 50    
Moisture  
Dew Point 13 °F    
Average Humidity 83    
Maximum Humidity 100    
Minimum Humidity 68    
Precipitation  
Precipitation 0.00 in - - ()
Sea Level Pressure  
Sea Level Pressure 30.11 in    
Wind  
Wind Speed 10 mph (NNW)    
Max Wind Speed 15 mph    
Max Gust Speed 20 mph    
Visibility 10 miles    
Events      
Averages and records for this station are not official NWS values.
T = Trace of Precipitation, MM = Missing Value Source: NWS Daily Summary

Daily Weather History Graph

Daily Weather History Graph

Search for Another Location

Airport or City:

Trip Planner

Search our weather history database for the weather conditions in past years. The results will help you decide how hot, cold, wet, or windy it might be!

Date:

Astronomy

Mar. 16, 2013 Rise Set
Actual Time 7:28 AM CDT 7:25 PM CDT
Civil Twilight 6:58 AM CDT 7:55 PM CDT
Nautical Twilight 6:24 AM CDT 8:29 PM CDT
Astronomical Twilight 5:49 AM CDT 9:04 PM CDT
Moon 9:44 AM CDT (3/16) No Moon Set
Length of Visible Light 12h 56m
Length of Day
11h 57m
Waxing Crescent, 23% of the Moon is Illuminated
Mar 16
Waxing Crescent
Mar 19
First Quarter
Mar 27
Full
Apr 2
Last Quarter
Apr 10
New

Hourly Weather History & Observations

Time (CDT) Temp. Windchill Dew Point Humidity Pressure Visibility Wind Dir Wind Speed Gust Speed Precip Events Conditions
12:13 AM 24.8 °F 15.3 °F 24.8 °F 100% 29.92 in 10.0 mi NNE 9.2 mph - N/A   Overcast
12:33 AM 24.8 °F 14.6 °F 24.8 °F 100% 29.93 in 10.0 mi NNE 10.4 mph - N/A   Overcast
12:52 AM 24.8 °F 16.1 °F 23.0 °F 93% 29.93 in 10.0 mi North 8.1 mph - N/A   Overcast
1:13 AM 23.0 °F 12.4 °F 23.0 °F 100% 29.94 in 10.0 mi North 10.4 mph - N/A   Overcast
1:33 AM 23.0 °F 12.4 °F 23.0 °F 100% 29.94 in 10.0 mi North 10.4 mph - N/A   Overcast
1:52 AM 23.0 °F 13.1 °F 23.0 °F 100% 29.94 in 10.0 mi North 9.2 mph - N/A   Overcast
2:13 AM 23.0 °F 13.9 °F 23.0 °F 100% 29.95 in 10.0 mi North 8.1 mph - N/A   Overcast
2:33 AM 23.0 °F 13.1 °F 21.2 °F 93% 29.95 in 10.0 mi NNE 9.2 mph - N/A   Overcast
2:52 AM 23.0 °F 13.1 °F 21.2 °F 93% 29.96 in 10.0 mi North 9.2 mph - N/A   Overcast
3:13 AM 23.0 °F 13.9 °F 21.2 °F 93% 29.96 in 10.0 mi North 8.1 mph - N/A   Overcast
3:33 AM 21.2 °F 10.1 °F 21.2 °F 100% 29.97 in 10.0 mi North 10.4 mph - N/A   Overcast
3:52 AM 21.2 °F 9.5 °F 19.4 °F 93% 29.99 in 10.0 mi North 11.5 mph - N/A   Overcast
4:13 AM 21.2 °F 10.9 °F 19.4 °F 93% 30.00 in 10.0 mi North 9.2 mph - N/A   Overcast
4:33 AM 21.2 °F 11.7 °F 19.4 °F 93% 30.01 in 10.0 mi North 8.1 mph - N/A   Overcast
4:52 AM 21.2 °F 12.6 °F 19.4 °F 93% 30.02 in 10.0 mi North 6.9 mph - N/A   Overcast
5:13 AM 19.4 °F 10.4 °F 17.6 °F 93% 30.03 in 10.0 mi North 6.9 mph - N/A   Overcast
5:33 AM 19.4 °F 9.5 °F 17.6 °F 93% 30.03 in 10.0 mi North 8.1 mph - N/A   Overcast
5:52 AM 19.4 °F 9.5 °F 17.6 °F 93% 30.04 in 10.0 mi North 8.1 mph - N/A   Overcast
6:13 AM 19.4 °F 10.4 °F 15.8 °F 86% 30.05 in 10.0 mi North 6.9 mph - N/A   Overcast
6:33 AM 19.4 °F 10.4 °F 15.8 °F 86% 30.06 in 10.0 mi North 6.9 mph - N/A   Overcast
6:52 AM 19.4 °F 10.4 °F 15.8 °F 86% 30.07 in 10.0 mi North 6.9 mph - N/A   Overcast
7:13 AM 19.4 °F 8.6 °F 17.6 °F 93% 30.08 in 10.0 mi North 9.2 mph - N/A   Overcast
7:32 AM 19.4 °F 7.2 °F 17.6 °F 93% 30.09 in 10.0 mi NNW 11.5 mph - N/A   Overcast
7:53 AM 17.6 °F 5.7 °F 15.8 °F 93% 30.10 in 10.0 mi NNW 10.4 mph - N/A   Overcast
8:12 AM 15.8 °F 3.4 °F 14.0 °F 93% 30.11 in 10.0 mi NNW 10.4 mph - N/A   Mostly Cloudy
8:33 AM 15.8 °F 5.1 °F 14.0 °F 93% 30.12 in 10.0 mi NNW 8.1 mph - N/A   Overcast
8:52 AM 15.8 °F 4.2 °F 12.2 °F 86% 30.12 in 10.0 mi NNW 9.2 mph - N/A   Mostly Cloudy
9:13 AM 15.8 °F 4.2 °F 12.2 °F 86% 30.13 in 10.0 mi NNW 9.2 mph - N/A   Scattered Clouds
9:33 AM 17.6 °F 8.2 °F 14.0 °F 86% 30.13 in 10.0 mi NW 6.9 mph - N/A   Mostly Cloudy
9:52 AM 17.6 °F 6.4 °F 14.0 °F 86% 30.14 in 10.0 mi WNW 9.2 mph - N/A   Overcast
10:13 AM 17.6 °F 6.4 °F 12.2 °F 79% 30.14 in 10.0 mi NNW 9.2 mph - N/A   Overcast
10:33 AM 17.6 °F 8.2 °F 12.2 °F 79% 30.15 in 10.0 mi NW 6.9 mph - N/A   Scattered Clouds
10:52 AM 17.6 °F 6.4 °F 12.2 °F 79% 30.14 in 10.0 mi NNW 9.2 mph - N/A   Clear
11:13 AM 17.6 °F 5.0 °F 12.2 °F 79% 30.14 in 10.0 mi NW 11.5 mph - N/A   Clear
11:33 AM 15.8 °F 2.1 °F 12.2 °F 86% 30.14 in 10.0 mi NW 12.7 mph - N/A   Clear
11:52 AM 17.6 °F 5.7 °F 12.2 °F 79% 30.15 in 10.0 mi NW 10.4 mph - N/A   Clear
12:13 PM 17.6 °F 5.0 °F 12.2 °F 79% 30.16 in 10.0 mi NW 11.5 mph 16.1 mph N/A   Clear
12:32 PM 17.6 °F 4.3 °F 10.4 °F 73% 30.16 in 10.0 mi NW 12.7 mph - N/A   Clear
12:53 PM 17.6 °F 4.3 °F 10.4 °F 73% 30.16 in 10.0 mi NW 12.7 mph 17.3 mph N/A   Clear
1:13 PM 17.6 °F 4.3 °F 10.4 °F 73% 30.16 in 10.0 mi WNW 12.7 mph 17.3 mph N/A   Clear
1:53 PM 17.6 °F 5.0 °F 10.4 °F 73% 30.17 in 10.0 mi NW 11.5 mph 16.1 mph N/A   Clear
2:13 PM 17.6 °F 5.7 °F 10.4 °F 73% 30.16 in 10.0 mi NW 10.4 mph - N/A   Clear
2:32 PM 17.6 °F 3.2 °F 10.4 °F 73% 30.16 in 10.0 mi NNW 15.0 mph 18.4 mph N/A   Clear
2:53 PM 17.6 °F 5.7 °F 10.4 °F 73% 30.15 in 10.0 mi NNW 10.4 mph 16.1 mph N/A   Clear
3:13 PM 17.6 °F 6.4 °F 10.4 °F 73% 30.14 in 10.0 mi NW 9.2 mph 17.3 mph N/A   Clear
3:32 PM 17.6 °F 5.7 °F 10.4 °F 73% 30.14 in 10.0 mi NNW 10.4 mph - N/A   Clear
3:53 PM 17.6 °F 5.0 °F 10.4 °F 73% 30.14 in 10.0 mi NW 11.5 mph 19.6 mph N/A   Clear
4:13 PM 17.6 °F 5.0 °F 10.4 °F 73% 30.13 in 10.0 mi NW 11.5 mph - N/A   Clear
4:32 PM 17.6 °F 5.7 °F 10.4 °F 73% 30.13 in 10.0 mi NW 10.4 mph 18.4 mph N/A   Clear
4:53 PM 17.6 °F 4.3 °F 10.4 °F 73% 30.12 in 10.0 mi NW 12.7 mph - N/A   Clear
5:13 PM 17.6 °F 5.7 °F 10.4 °F 73% 30.12 in 10.0 mi NW 10.4 mph - N/A   Clear
5:32 PM 17.6 °F 3.2 °F 8.6 °F 68% 30.13 in 10.0 mi WNW 15.0 mph 18.4 mph N/A   Clear
5:53 PM 17.6 °F 3.7 °F 8.6 °F 68% 30.14 in 10.0 mi NW 13.8 mph - N/A   Clear
6:13 PM 17.6 °F 5.0 °F 8.6 °F 68% 30.14 in 10.0 mi NW 11.5 mph 17.3 mph N/A   Clear
6:32 PM 15.8 °F 2.7 °F 8.6 °F 73% 30.15 in 10.0 mi NW 11.5 mph - N/A   Clear
6:53 PM 15.8 °F 4.2 °F 8.6 °F 73% 30.16 in 10.0 mi NW 9.2 mph 16.1 mph N/A   Clear
7:13 PM 15.8 °F 2.7 °F 6.8 °F 68% 30.16 in 10.0 mi NW 11.5 mph - N/A   Clear
7:32 PM 14.0 °F 1.2 °F 6.8 °F 73% 30.18 in 10.0 mi WNW 10.4 mph - N/A   Clear
7:53 PM 14.0 °F 1.2 °F 6.8 °F 73% 30.19 in 10.0 mi NW 10.4 mph - N/A   Clear
8:13 PM 12.2 °F 0.7 °F 6.8 °F 79% 30.20 in 10.0 mi WNW 8.1 mph - N/A   Clear
8:32 PM 12.2 °F -1.0 °F 6.8 °F 79% 30.20 in 10.0 mi WNW 10.4 mph - N/A   Clear
8:53 PM 12.2 °F -2.5 °F 5.0 °F 73% 30.21 in 10.0 mi WNW 12.7 mph - N/A   Clear
9:13 PM 10.4 °F -4.1 °F 5.0 °F 79% 30.21 in 10.0 mi WNW 11.5 mph - N/A   Clear
9:32 PM 10.4 °F -3.3 °F 3.2 °F 73% 30.21 in 10.0 mi NW 10.4 mph - N/A   Clear
9:53 PM 8.6 °F -5.5 °F 3.2 °F 79% 30.22 in 10.0 mi NW 10.4 mph - N/A   Clear
10:12 PM 8.6 °F -3.7 °F 3.2 °F 79% 30.22 in 10.0 mi NW 8.1 mph - N/A   Clear
10:33 PM 8.6 °F -2.6 °F 1.4 °F 73% 30.23 in 10.0 mi NW 6.9 mph - N/A   Clear
10:53 PM 6.8 °F -5.9 °F 1.4 °F 79% 30.24 in 10.0 mi NW 8.1 mph - N/A   Clear
11:12 PM 6.8 °F -4.8 °F 1.4 °F 79% 30.24 in 10.0 mi NW 6.9 mph - N/A   Clear
11:33 PM 6.8 °F -5.9 °F 1.4 °F 79% 30.24 in 10.0 mi NW 8.1 mph - N/A   Clear
11:53 PM 6.8 °F -4.8 °F 1.4 °F 79% 30.25 in 10.0 mi WNW 6.9 mph - N/A   Clear